Plymouth, MA

1:26 AM EST on February 23, 2017 (GMT -0500)
Plymouth Municipal

Weather History for KPYM - December, 2013

Change the Weather History Date:

Tuesday, December 3, 2013

  Actual Average Record
Temperature  
Mean Temperature 40 °F -  
Max Temperature 48 °F 48 °F 67 °F (1982)
Min Temperature 32 °F 25 °F 5 °F (1989)
Degree Days  
Heating Degree Days 25    
Moisture  
Dew Point 33 °F    
Average Humidity 80    
Maximum Humidity 89    
Minimum Humidity 48    
Precipitation  
Precipitation 0.00 in - - ()
Sea Level Pressure  
Sea Level Pressure 29.89 in    
Wind  
Wind Speed 6 mph (NNW)    
Max Wind Speed 12 mph    
Max Gust Speed -    
Visibility 6 miles    
Events      
Averages and records for this station are not official NWS values.
T = Trace of Precipitation, MM = Missing Value Source: NWS Daily Summary

Daily Weather History Graph

Daily Weather History Graph

Search for Another Location

Airport or City:

Trip Planner

Search our weather history database for the weather conditions in past years. The results will help you decide how hot, cold, wet, or windy it might be!

Date:

Astronomy

Dec. 03, 2013 Rise Set
Actual Time 6:53 AM EST 4:12 PM EST
Civil Twilight 6:22 AM EST 4:43 PM EST
Nautical Twilight 5:47 AM EST 5:18 PM EST
Astronomical Twilight 5:13 AM EST 5:51 PM EST
Moon 7:18 AM EST (12/3) 5:12 PM EST (12/3)
Length of Visible Light 10h 21m
Length of Day
9h 18m
New Moon, 1% of the Moon is Illuminated
Dec 3
New Moon
Dec 9
First Quarter
Dec 17
Full
Dec 25
Last Quarter
Jan 1
New

Hourly Weather History & Observations

Time (EST) Temp. Windchill Dew Point Humidity Pressure Visibility Wind Dir Wind Speed Gust Speed Precip Events Conditions
12:52 AM 37.0 °F 32.4 °F 34.0 °F 89% 29.90 in 3.0 mi NNW 5.8 mph - N/A   Overcast
1:50 AM 37.4 °F 33.8 °F 33.8 °F 87% 29.90 in 2.5 mi North 4.6 mph - N/A   Overcast
1:52 AM 37.0 °F 34.5 °F 34.0 °F 89% 29.90 in 2.5 mi North 3.5 mph - N/A   Overcast
2:25 AM 37.0 °F 32.4 °F 34.0 °F 89% 29.90 in 3.0 mi North 5.8 mph - N/A   Overcast
2:40 AM 37.0 °F 34.5 °F 34.0 °F 89% 29.90 in 2.5 mi NNW 3.5 mph - N/A   Overcast
2:52 AM 37.0 °F 32.4 °F 34.0 °F 89% 29.90 in 2.5 mi NNW 5.8 mph - N/A   Overcast
3:30 AM 37.9 °F 34.4 °F 34.0 °F 86% 29.89 in 3.0 mi NNE 4.6 mph - N/A   Overcast
3:52 AM 37.9 °F 33.5 °F 35.1 °F 89% 29.90 in 2.5 mi NNE 5.8 mph - N/A   Overcast
4:34 AM 37.0 °F 31.6 °F 34.0 °F 89% 29.89 in 3.0 mi North 6.9 mph - N/A   Overcast
4:52 AM 37.0 °F 31.6 °F 34.0 °F 89% 29.90 in 2.5 mi North 6.9 mph - N/A   Overcast
5:15 AM 37.0 °F 31.0 °F 34.0 °F 89% 29.89 in 3.0 mi North 8.1 mph - N/A   Overcast
5:52 AM 37.0 °F 31.6 °F 34.0 °F 89% 29.89 in 2.0 mi NNW 6.9 mph - N/A   Overcast
6:01 AM 37.0 °F 31.6 °F 34.0 °F 89% 29.89 in 1.5 mi NNW 6.9 mph - N/A   Overcast
6:52 AM 37.0 °F 32.4 °F 34.0 °F 89% 29.90 in 1.2 mi NNW 5.8 mph - N/A   Overcast
7:52 AM 37.0 °F 31.0 °F 34.0 °F 89% 29.90 in 2.5 mi North 8.1 mph - N/A   Overcast
7:59 AM 37.0 °F 31.0 °F 34.0 °F 89% 29.89 in 3.0 mi North 8.1 mph - N/A   Overcast
8:52 AM 37.0 °F 29.3 °F 34.0 °F 89% 29.89 in 6.0 mi North 11.5 mph - N/A   Overcast
9:10 AM 37.9 °F 32.7 °F 34.0 °F 86% 29.88 in 8.0 mi North 6.9 mph - N/A   Overcast
9:52 AM 39.0 °F 32.3 °F 35.1 °F 86% 29.88 in 10.0 mi NNW 10.4 mph - N/A   Overcast
10:50 AM 42.8 °F 37.5 °F 33.8 °F 70% 29.86 in 10.0 mi North 9.2 mph - N/A   Scattered Clouds
10:52 AM 43.0 °F 37.7 °F 34.0 °F 71% 29.87 in 10.0 mi North 9.2 mph - N/A   Partly Cloudy
11:52 AM 46.9 °F - 34.0 °F 61% 29.84 in 10.0 mi Variable 5.8 mph - N/A   Clear
12:52 PM 48.9 °F - 33.1 °F 54% 29.84 in 10.0 mi NW 10.4 mph - N/A   Clear
1:52 PM 48.9 °F - 30.0 °F 48% 29.83 in 10.0 mi NNW 9.2 mph - N/A   Clear
2:52 PM 48.0 °F - 33.1 °F 56% 29.85 in 10.0 mi North 8.1 mph - N/A   Clear
3:52 PM 45.0 °F 40.1 °F 32.0 °F 60% 29.86 in 10.0 mi NNW 9.2 mph - N/A   Clear
4:52 PM 39.9 °F 37.8 °F 30.9 °F 70% 29.87 in 10.0 mi NNW 3.5 mph - N/A   Clear
5:52 PM 36.0 °F - 30.0 °F 79% 29.89 in 10.0 mi Calm Calm - N/A   Clear
6:52 PM 34.0 °F 31.0 °F 28.9 °F 82% 29.91 in 10.0 mi West 3.5 mph - N/A   Clear
7:52 PM 32.0 °F 28.7 °F 27.0 °F 82% 29.91 in 9.0 mi WNW 3.5 mph - N/A   Clear
8:52 PM 37.0 °F 33.3 °F 30.0 °F 76% 29.93 in 10.0 mi WNW 4.6 mph - N/A   Clear
9:52 PM 36.0 °F 32.1 °F 30.0 °F 79% 29.93 in 10.0 mi West 4.6 mph - N/A   Clear
10:52 PM 35.1 °F 32.2 °F 30.0 °F 82% 29.94 in 10.0 mi West 3.5 mph - N/A   Clear
11:52 PM 34.0 °F 28.8 °F 28.9 °F 82% 29.94 in 9.0 mi WNW 5.8 mph - N/A   Clear